Date String (YYYY-MM-DD hh:mm:ss) UTC,Instrument flags,Ambient pressure (hPa),Sample flow (lpm),Bypass flow (lpm),Sample temperature (°C),Ambient temperature (°C),ASC tube jacket temperature (°C),LED temperature (°C),Box temperature (°C),Sample RH (%),Span deviation,Mass concentration (μg/m³),Mass concentration (μg/m³),Mass concentration (μg/m³)
DateTimeUTC,F1_M11,P_M11,Q1_M11,Q2_M11,T1_M11,T2_M11,T3_M11,T4_M11,T5_M11,U1_M11,ZSPAN_M11,X0_M11,X2_M11,X1_M11
2022-09-15 09:00:00,,0824.7,5.02,0.00,30.5,29.1,00.0,39.3,32.3,23.5,0000.0,0008.06,0002.81,0002.04
2022-09-15 09:01:00,,0824.7,4.99,0.00,30.5,29.1,00.0,39.3,32.3,23.5,0000.0,0006.87,0002.77,0002.04
2022-09-15 09:02:00,,0824.7,5.01,0.00,30.6,29.1,00.0,39.3,32.3,23.5,0000.0,0006.43,0002.76,0002.04
2022-09-15 09:03:00,,0824.7,4.99,0.00,30.6,29.2,00.0,39.3,32.4,23.5,0000.0,0005.76,0002.76,0002.05
2022-09-15 09:04:00,,0824.6,5.02,0.00,30.6,29.2,00.0,39.3,32.4,23.5,0000.0,0005.72,0002.77,0002.06
2022-09-15 09:05:00,,0824.7,5.00,0.00,30.6,29.2,00.0,39.4,32.4,23.5,0000.0,0005.58,0002.74,0002.07
2022-09-15 09:06:00,,0824.7,5.00,0.00,30.6,29.2,00.0,39.4,32.4,23.4,0000.0,0005.10,0002.73,0002.07
2022-09-15 09:07:00,,0824.7,5.01,0.00,30.6,29.2,00.0,39.4,32.4,23.4,0000.0,0004.97,0002.71,0002.07
2022-09-15 09:08:00,,0824.6,4.99,0.00,30.6,29.2,00.0,39.4,32.4,23.4,0000.0,0004.83,0002.68,0002.07
2022-09-15 09:09:00,,0824.6,5.00,0.00,30.6,29.2,00.0,39.4,32.4,23.3,0000.0,0004.39,0002.66,0002.08
2022-09-15 09:10:00,,0824.6,4.99,0.00,30.6,29.2,00.0,39.4,32.4,23.3,0000.0,0004.06,0002.71,0002.08
2022-09-15 09:11:00,,0824.8,5.01,0.00,30.6,29.2,00.0,39.4,32.4,23.3,0000.0,0004.08,0002.73,0002.10
2022-09-15 09:12:00,,0824.7,4.99,0.00,30.7,29.2,00.0,39.4,32.4,23.5,0000.0,0004.09,0002.71,0002.10
2022-09-15 09:13:00,,0824.7,5.00,0.00,30.7,29.3,00.0,39.4,32.4,23.4,0000.0,0004.17,0002.73,0002.12
2022-09-15 09:14:00,,0824.7,5.01,0.00,30.7,29.2,00.0,39.4,32.4,23.3,0000.0,0003.95,0002.69,0002.11
2022-09-15 09:15:00,,0824.8,5.01,0.00,30.7,29.3,00.0,39.4,32.5,23.4,0000.0,0004.37,0002.70,0002.09
2022-09-15 09:16:00,,0824.8,4.98,0.00,30.7,29.3,00.0,39.4,32.4,23.1,0000.0,0004.50,0002.66,0002.07
2022-09-15 09:17:00,,0824.8,5.01,0.00,30.7,29.3,00.0,39.4,32.5,22.9,0000.0,0004.36,0002.62,0002.08
2022-09-15 09:18:00,,0824.8,4.99,0.00,30.7,29.3,00.0,39.5,32.5,23.0,0000.0,0004.28,0002.60,0002.08
2022-09-15 09:19:00,,0824.8,5.01,0.00,30.7,29.2,00.0,39.5,32.5,22.8,0000.0,0004.30,0002.60,0002.07
2022-09-15 09:20:00,,0824.8,5.00,0.00,30.7,29.2,00.0,39.5,32.5,22.5,0000.0,0004.25,0002.58,0002.06
2022-09-15 09:21:00,,0824.8,4.99,0.00,30.7,29.3,00.0,39.5,32.5,22.9,0000.0,0004.09,0002.53,0002.06
2022-09-15 09:22:00,,0824.8,5.01,0.00,30.7,29.3,00.0,39.5,32.5,22.4,0000.0,0004.10,0002.52,0002.06
2022-09-15 09:23:00,,0824.9,5.00,0.00,30.7,29.3,00.0,39.5,32.5,22.3,0000.0,0004.01,0002.49,0002.05
2022-09-15 09:24:00,,0824.9,4.99,0.00,30.7,29.3,00.0,39.5,32.5,22.1,0000.0,0003.82,0002.43,0002.05
2022-09-15 09:25:00,,0824.9,5.01,0.00,30.7,29.3,00.0,39.5,32.5,22.3,0000.0,0003.76,0002.42,0002.04
2022-09-15 09:26:00,,0824.9,4.99,0.00,30.8,29.3,00.0,39.5,32.5,22.4,0000.0,0003.48,0002.33,0002.04
2022-09-15 09:27:00,,0824.9,5.01,0.00,30.8,29.4,00.0,39.5,32.5,22.4,0000.0,0004.00,0002.29,0002.04
2022-09-15 09:28:00,,0824.9,4.99,0.00,30.8,29.3,00.0,39.5,32.5,22.7,0000.0,0004.16,0002.31,0002.03
2022-09-15 09:29:00,,0824.9,5.01,0.00,30.8,29.3,00.0,39.5,32.5,22.8,0000.0,0004.40,0002.33,0002.04
2022-09-15 09:30:00,,0824.9,5.00,0.00,30.8,29.3,00.0,39.5,32.5,22.8,0000.0,0004.40,0002.33,0002.04
2022-09-15 09:31:00,,0825.0,5.00,0.00,30.8,29.3,00.0,39.5,32.6,22.7,0000.0,0004.50,0002.36,0002.05
2022-09-15 09:32:00,,0824.9,5.01,0.00,30.8,29.4,00.0,39.5,32.6,22.4,0000.0,0004.58,0002.36,0002.04
2022-09-15 09:33:00,,0824.9,4.99,0.00,30.8,29.3,00.0,39.6,32.6,22.2,0000.0,0004.49,0002.33,0002.03
2022-09-15 09:34:00,,0824.9,5.01,0.00,30.8,29.3,00.0,39.6,32.6,22.3,0000.0,0004.60,0002.31,0002.03
2022-09-15 09:35:00,,0824.9,4.99,0.00,30.8,29.3,00.0,39.6,32.6,22.2,0000.0,0005.15,0002.30,0002.01
2022-09-15 09:36:00,,0824.9,5.00,0.00,30.8,29.3,00.0,39.6,32.6,22.3,0000.0,0005.18,0002.29,0001.99
2022-09-15 09:37:00,,0824.9,4.99,0.00,30.8,29.3,00.0,39.6,32.6,22.3,0000.0,0005.08,0002.30,0001.98
2022-09-15 09:38:00,,0824.9,5.01,0.00,30.8,29.4,00.0,39.6,32.6,22.2,0000.0,0004.16,0002.34,0001.97
2022-09-15 09:39:00,,0824.9,5.00,0.00,30.8,29.4,00.0,39.6,32.6,22.1,0000.0,0003.97,0002.29,0001.96
2022-09-15 09:40:00,,0824.9,4.99,0.00,30.8,29.4,00.0,39.6,32.6,22.1,0000.0,0003.72,0002.25,0001.95
2022-09-15 09:41:00,,0824.9,5.01,0.00,30.8,29.4,00.0,39.6,32.6,22.2,0000.0,0004.07,0002.23,0001.94
2022-09-15 09:42:00,,0824.9,4.99,0.00,30.8,29.4,00.0,39.6,32.6,22.2,0000.0,0004.81,0002.21,0001.92
2022-09-15 09:43:00,,0824.9,5.01,0.00,30.8,29.4,00.0,39.6,32.6,22.3,0000.0,0005.78,0002.20,0001.91
2022-09-15 09:44:00,,0824.9,5.00,0.00,30.8,29.4,00.0,39.6,32.6,22.3,0000.0,0005.84,0002.22,0001.91
2022-09-15 09:45:00,,0824.9,4.99,0.00,30.9,29.4,00.0,39.6,32.6,22.4,0000.0,0007.21,0002.27,0001.92
2022-09-15 09:46:00,,0824.9,5.01,0.00,30.9,29.4,00.0,39.6,32.6,22.4,0000.0,0007.47,0002.33,0001.94
2022-09-15 09:47:00,,0824.9,4.99,0.00,30.9,29.4,00.0,39.6,32.6,22.4,0000.0,0007.53,0002.38,0001.96
2022-09-15 09:48:00,,0824.9,5.01,0.00,30.9,29.4,00.0,39.6,32.6,22.5,0000.0,0007.63,0002.44,0001.98
2022-09-15 09:49:00,,0825.0,4.99,0.00,30.9,29.4,00.0,39.7,32.6,22.6,0000.0,0007.68,0002.47,0002.00
2022-09-15 09:50:00,,0825.0,5.01,0.00,30.9,29.4,00.0,39.7,32.7,22.7,0000.0,0008.19,0002.60,0002.02
2022-09-15 09:51:00,,0825.0,5.00,0.00,30.9,29.5,00.0,39.7,32.7,22.9,0000.0,0008.89,0002.73,0002.04
2022-09-15 09:52:00,,0825.0,5.00,0.00,30.9,29.5,00.0,39.7,32.7,22.9,0000.0,0009.26,0002.82,0002.06
2022-09-15 09:53:00,,0825.0,5.01,0.00,30.9,29.5,00.0,39.7,32.7,23.0,0000.0,0009.02,0002.86,0002.07
2022-09-15 09:54:00,,0825.1,4.99,0.00,30.9,29.5,00.0,39.7,32.7,23.0,0000.0,0008.96,0002.97,0002.08
2022-09-15 09:55:00,,0825.1,5.01,0.00,30.9,29.5,00.0,39.7,32.7,23.0,0000.0,0009.43,0003.09,0002.10
2022-09-15 09:56:00,,0825.1,4.99,0.00,30.9,29.5,00.0,39.7,32.7,23.1,0000.0,0009.66,0003.14,0002.11
2022-09-15 09:57:00,,0825.1,5.01,0.00,30.9,29.5,00.0,39.7,32.7,23.1,0000.0,0011.55,0003.17,0002.11
2022-09-15 09:58:00,,0825.1,4.99,0.00,30.9,29.5,00.0,39.7,32.7,23.2,0000.0,0011.90,0003.21,0002.10
2022-09-15 09:59:00,,0825.1,5.01,0.00,30.9,29.5,00.0,39.7,32.7,23.2,0000.0,0012.17,0003.23,0002.10
